COSMOS 2557 (706K)

Last updated on Fri Sep 19 2025 00:02:35 GMT+0000 (Coordinated Universal Time)

1 52984U 22075A 25260.93777655 -.00000056 00000+0 00000+0 0 9998 2 52984 64.4550 324.0694 0012881 271.1947 88.7251 2.13102127 24919
UTC large
Height (km)
Speed (km/s)
/
Latitude / Longitude
Inclination (degrees)
Orbital Period (minutes)
Azimuth
Elevation
Range (km)
Doppler Factor

Next 0 passes for location: London (51.5072 / 0.1276)

Sorry there are no passes over London.